Tracking 31027 objects as of 19-Jul-2025
HD Live streaming from Space Station
objects crossing your sky now

SMS 2 AKM

Track SMS 2 AKM now!


NORAD ID: 20835
Int'l Code: 1975-011F
Perigee: 35,856.6 km
Apogee: 36,688.8 km
Inclination: 4.6 °
Period: 1,460.6 minutes
Semi major axis: 42643 km
RCS: 0.7943 m2 (medium)
Launch date: February 6, 1975
Source: United States (US)
Launch site: AIR FORCE EASTERN TEST RANGE (AFETR)

Note: This is a ROCKET BODY
Your satellite tracking list
STARLINK-1749
Track 1 satellite(s)




NASA's NSSDC Master Catalog

Two Line Element Set (TLE):
1 20835U 75011F   25199.63329080 -.00000082  00000-0  00000-0 0  9990
2 20835   4.6408 277.9489 0097578 135.4696 220.3977  0.98587279 43280
Source of the keplerian elements: AFSPC